Hlavní strana
METAR-TAF:

METAR-TAF

Letiště :

Bowman Field

Louisville, Kentucky, Spojené státy americké

zeměpisná šířka: 38-13-40N, zeměpisná délka: 085-39-49W, výška: 166 m

Aktuální stav počasí

Zpráva byla vytvořena před 21 minutami, v 21:53 UTC
Severní vítr 7 kt s nárazy do 19 kt
Teplota 8°C
Vlhkost vzduchu 76%
Tlak 1019 hPa
Viditelnost: 16.1 km
Zataženo ve výšce 1600 ft

METAR: KLOU 252153Z 36007G19KT 10SM OVC016 08/04 A3008 RMK AO2 SLP186 T00780039

Čas: 18:14 (22:14 UTC)


TAF: chybějící

Stav a předpovědi počasí z více než 4 000 letišť (zprávy METAR a TAF).

Červené a žluté tečky na mapě představují dostupné meteorologické stanice.

Když kurzor umístíte na tečku, zobrazí se název stanice.

Pak kliknutím zobrazíte stav a předpověď počasí.

Chcete-li změnit mapu, kliknutím na zelené tlačítko se znaménkem +mapu přiblížíte, kliknutím na zelené tlačítko se znaménkem – mapu oddálíte a kliknutím na zelené šipky přejdete na sousední mapy.


METAR-TAF: